Year,Month,Day,Hour,Minute,Value (Times are PST for temperature in C)
2009,09,22,00,00,12.40
2009,09,22,00,01,12.50
2009,09,22,00,02,12.60
2009,09,22,00,03,12.60
2009,09,22,00,04,12.70
2009,09,22,00,05,12.70
2009,09,22,00,06,12.70
2009,09,22,00,07,12.70
2009,09,22,00,08,12.70
2009,09,22,00,09,12.70
2009,09,22,00,10,12.70
2009,09,22,00,11,12.70
2009,09,22,00,12,12.70
2009,09,22,00,13,12.70
2009,09,22,00,14,12.70
2009,09,22,00,15,12.70
2009,09,22,00,16,12.70
2009,09,22,00,17,12.80
2009,09,22,00,18,12.70
2009,09,22,00,19,12.70
2009,09,22,00,20,12.70
2009,09,22,00,21,12.60
2009,09,22,00,22,12.60
2009,09,22,00,23,12.60
2009,09,22,00,24,12.50
2009,09,22,00,25,12.50
2009,09,22,00,26,12.50
2009,09,22,00,27,12.50
2009,09,22,00,28,12.50
2009,09,22,00,29,12.50
2009,09,22,00,30,12.50
2009,09,22,00,31,12.60
2009,09,22,00,32,12.60
2009,09,22,00,33,12.70
2009,09,22,00,34,12.70
2009,09,22,00,35,12.70
2009,09,22,00,36,12.70
2009,09,22,00,37,12.70
2009,09,22,00,38,12.60
2009,09,22,00,39,12.60
2009,09,22,00,40,12.60
2009,09,22,00,41,12.60
2009,09,22,00,42,12.50
2009,09,22,00,43,12.50
2009,09,22,00,44,12.50
2009,09,22,00,45,12.50
2009,09,22,00,46,12.50
2009,09,22,00,47,12.50
2009,09,22,00,48,12.50
2009,09,22,00,49,12.50
2009,09,22,00,50,12.40
2009,09,22,00,51,12.30
2009,09,22,00,52,12.30
2009,09,22,00,53,12.30
2009,09,22,00,54,12.30
2009,09,22,00,55,12.30
2009,09,22,00,56,12.30
2009,09,22,00,57,12.20
2009,09,22,00,58,12.20
2009,09,22,00,59,12.20
2009,09,22,01,00,12.10
2009,09,22,01,01,12.10
2009,09,22,01,02,12.10
2009,09,22,01,03,12.10
2009,09,22,01,04,12.10
2009,09,22,01,05,12.10
2009,09,22,01,06,12.10
2009,09,22,01,07,12.10
2009,09,22,01,08,12.10
2009,09,22,01,09,12.10
2009,09,22,01,10,12.10
2009,09,22,01,11,12.00
2009,09,22,01,12,12.00
2009,09,22,01,13,12.10
2009,09,22,01,14,12.10
2009,09,22,01,15,12.20
2009,09,22,01,16,12.20
2009,09,22,01,17,12.30
2009,09,22,01,18,12.30
2009,09,22,01,19,12.30
2009,09,22,01,20,12.30
2009,09,22,01,21,12.30
2009,09,22,01,22,12.30
2009,09,22,01,23,12.30
2009,09,22,01,24,12.30
2009,09,22,01,25,12.20
2009,09,22,01,26,12.20
2009,09,22,01,27,12.20
2009,09,22,01,28,12.10
2009,09,22,01,29,12.10
2009,09,22,01,30,12.10
2009,09,22,01,31,12.10
2009,09,22,01,32,12.10
2009,09,22,01,33,12.20
2009,09,22,01,34,12.30
2009,09,22,01,35,12.30
2009,09,22,01,36,12.30
2009,09,22,01,37,12.30
2009,09,22,01,38,12.30
2009,09,22,01,39,12.30
2009,09,22,01,40,12.20
2009,09,22,01,41,12.10
2009,09,22,01,42,12.10
2009,09,22,01,43,12.00
2009,09,22,01,44,12.00
2009,09,22,01,45,11.90
2009,09,22,01,46,11.90
2009,09,22,01,47,11.90
2009,09,22,01,48,11.90
2009,09,22,01,49,11.90
2009,09,22,01,50,11.80
2009,09,22,01,51,11.80
2009,09,22,01,52,11.80
2009,09,22,01,53,11.80
2009,09,22,01,54,11.70
2009,09,22,01,55,11.60
2009,09,22,01,56,11.60
2009,09,22,01,57,11.60
2009,09,22,01,58,11.60
2009,09,22,01,59,11.60
2009,09,22,02,00,11.60
2009,09,22,02,01,11.50
2009,09,22,02,02,11.40
2009,09,22,02,03,11.40
2009,09,22,02,04,11.40
2009,09,22,02,05,11.40
2009,09,22,02,06,11.50
2009,09,22,02,07,11.60
2009,09,22,02,08,11.60
2009,09,22,02,09,11.60
2009,09,22,02,10,11.70
2009,09,22,02,11,11.70
2009,09,22,02,12,11.80
2009,09,22,02,13,11.80
2009,09,22,02,14,11.80
2009,09,22,02,15,11.80
2009,09,22,02,16,11.80
2009,09,22,02,17,11.80
2009,09,22,02,18,11.80
2009,09,22,02,19,11.80
2009,09,22,02,20,11.80
2009,09,22,02,21,11.70
2009,09,22,02,22,11.60
2009,09,22,02,23,11.60
2009,09,22,02,24,11.60
2009,09,22,02,25,11.60
2009,09,22,02,26,11.50
2009,09,22,02,27,11.40
2009,09,22,02,28,11.40
2009,09,22,02,29,11.40
2009,09,22,02,30,11.40
2009,09,22,02,31,11.40
2009,09,22,02,32,11.40
2009,09,22,02,33,11.60
2009,09,22,02,34,11.60
2009,09,22,02,35,11.60
2009,09,22,02,36,11.60
2009,09,22,02,37,11.60
2009,09,22,02,38,11.60
2009,09,22,02,39,11.70
2009,09,22,02,40,11.70
2009,09,22,02,41,11.70
2009,09,22,02,42,11.70
2009,09,22,02,43,11.70
2009,09,22,02,44,11.60
2009,09,22,02,45,11.60
2009,09,22,02,46,11.60
2009,09,22,02,47,11.60
2009,09,22,02,48,11.60
2009,09,22,02,49,11.60
2009,09,22,02,50,11.60
2009,09,22,02,51,11.60
2009,09,22,02,52,11.60
2009,09,22,02,53,11.60
2009,09,22,02,54,11.50
2009,09,22,02,55,11.40
2009,09,22,02,56,11.40
2009,09,22,02,57,11.30
2009,09,22,02,58,11.30
2009,09,22,02,59,11.20
2009,09,22,03,00,11.10
2009,09,22,03,01,11.10
2009,09,22,03,02,11.10
2009,09,22,03,03,11.00
2009,09,22,03,04,10.90
2009,09,22,03,05,10.90
2009,09,22,03,06,10.90
2009,09,22,03,07,10.90
2009,09,22,03,08,10.90
2009,09,22,03,09,10.90
2009,09,22,03,10,10.90
2009,09,22,03,11,10.90
2009,09,22,03,12,10.90
2009,09,22,03,13,10.90
2009,09,22,03,14,10.80
2009,09,22,03,15,10.80
2009,09,22,03,16,10.70
2009,09,22,03,17,10.70
2009,09,22,03,18,10.60
2009,09,22,03,19,10.60
2009,09,22,03,20,10.60
2009,09,22,03,21,10.60
2009,09,22,03,22,10.60
2009,09,22,03,23,10.50
2009,09,22,03,24,10.40
2009,09,22,03,25,10.40
2009,09,22,03,26,10.40
2009,09,22,03,27,10.30
2009,09,22,03,28,10.30
2009,09,22,03,29,10.30
2009,09,22,03,30,10.20
2009,09,22,03,31,10.20
2009,09,22,03,32,10.10
2009,09,22,03,33,10.10
2009,09,22,03,34,10.10
2009,09,22,03,35,10.10
2009,09,22,03,36,10.10
2009,09,22,03,37,10.10
2009,09,22,03,38,9.90
2009,09,22,03,39,9.90
2009,09,22,03,40,9.90
2009,09,22,03,41,9.90
2009,09,22,03,42,9.90
2009,09,22,03,43,9.90
2009,09,22,03,44,9.90
2009,09,22,03,45,9.90
2009,09,22,03,46,9.90
2009,09,22,03,47,9.90
2009,09,22,03,48,10.00
2009,09,22,03,49,10.10
2009,09,22,03,50,10.10
2009,09,22,03,51,10.10
2009,09,22,03,52,10.10
2009,09,22,03,53,10.10
2009,09,22,03,54,10.10
2009,09,22,03,55,10.10
2009,09,22,03,56,10.10
2009,09,22,03,57,10.10
2009,09,22,03,58,10.10
2009,09,22,03,59,10.10
2009,09,22,04,00,10.10
2009,09,22,04,01,10.20
2009,09,22,04,02,10.20
2009,09,22,04,03,10.20
2009,09,22,04,05,10.20
2009,09,22,04,06,10.10
2009,09,22,04,07,10.10
2009,09,22,04,08,10.10
2009,09,22,04,09,10.10
2009,09,22,04,10,10.10
2009,09,22,04,11,10.10
2009,09,22,04,12,10.10
2009,09,22,04,13,10.10
2009,09,22,04,14,10.10
2009,09,22,04,15,10.10
2009,09,22,04,16,10.10
2009,09,22,04,17,10.10
2009,09,22,04,18,10.10
2009,09,22,04,19,10.10
2009,09,22,04,20,10.10
2009,09,22,04,21,10.10
2009,09,22,04,22,10.10
2009,09,22,04,23,10.10
2009,09,22,04,24,10.10
2009,09,22,04,25,10.10
2009,09,22,04,26,10.20
2009,09,22,04,27,10.20
2009,09,22,04,28,10.30
2009,09,22,04,29,10.40
2009,09,22,04,30,10.40
2009,09,22,04,31,10.60
2009,09,22,04,32,10.70
2009,09,22,04,33,10.80
2009,09,22,04,34,10.90
2009,09,22,04,35,11.00
2009,09,22,04,36,11.10
2009,09,22,04,37,11.20
2009,09,22,04,38,11.30
2009,09,22,04,39,11.50
2009,09,22,04,40,11.60
2009,09,22,04,41,11.70
2009,09,22,04,42,11.70
2009,09,22,04,43,11.80
2009,09,22,04,44,11.80
2009,09,22,04,45,11.80
2009,09,22,04,46,11.90
2009,09,22,04,47,11.90
2009,09,22,04,48,12.00
2009,09,22,04,49,12.00
2009,09,22,04,50,11.90
2009,09,22,04,51,11.90
2009,09,22,04,52,11.90
2009,09,22,04,53,11.90
2009,09,22,04,54,11.90
2009,09,22,04,55,11.90
2009,09,22,04,56,11.80
2009,09,22,04,57,11.80
2009,09,22,04,58,11.80
2009,09,22,04,59,11.80
2009,09,22,05,00,11.80
2009,09,22,05,01,11.80
2009,09,22,05,02,11.70
2009,09,22,05,03,11.60
2009,09,22,05,04,11.60
2009,09,22,05,05,11.60
2009,09,22,05,06,11.40
2009,09,22,05,07,11.40
2009,09,22,05,08,11.40
2009,09,22,05,09,11.30
2009,09,22,05,10,11.30
2009,09,22,05,11,11.20
2009,09,22,05,12,11.20
2009,09,22,05,13,11.10
2009,09,22,05,14,11.10
2009,09,22,05,15,11.10
2009,09,22,05,16,11.10
2009,09,22,05,17,10.90
2009,09,22,05,18,10.90
2009,09,22,05,19,10.90
2009,09,22,05,20,10.90
2009,09,22,05,21,10.90
2009,09,22,05,22,10.90
2009,09,22,05,23,11.00
2009,09,22,05,24,11.10
2009,09,22,05,25,11.10
2009,09,22,05,26,11.10
2009,09,22,05,27,11.20
2009,09,22,05,28,11.30
2009,09,22,05,29,11.40
2009,09,22,05,30,11.50
2009,09,22,05,31,11.60
2009,09,22,05,32,11.60
2009,09,22,05,33,11.60
2009,09,22,05,34,11.60
2009,09,22,05,35,11.60
2009,09,22,05,36,11.60
2009,09,22,05,37,11.60
2009,09,22,05,38,11.50
2009,09,22,05,39,11.40
2009,09,22,05,40,11.40
2009,09,22,05,41,11.30
2009,09,22,05,42,11.30
2009,09,22,05,43,11.20
2009,09,22,05,44,11.10
2009,09,22,05,45,11.00
2009,09,22,05,46,10.90
2009,09,22,05,47,10.80
2009,09,22,05,48,10.70
2009,09,22,05,49,10.60
2009,09,22,05,50,10.60
2009,09,22,05,51,10.40
2009,09,22,05,52,10.40
2009,09,22,05,53,10.30
2009,09,22,05,54,10.30
2009,09,22,05,55,10.20
2009,09,22,05,56,10.20
2009,09,22,05,57,10.10
2009,09,22,05,58,10.10
2009,09,22,05,59,10.10
2009,09,22,06,00,10.10
2009,09,22,06,01,10.10
2009,09,22,06,02,10.10
2009,09,22,06,03,10.00
2009,09,22,06,04,9.90
2009,09,22,06,05,9.90
2009,09,22,06,06,9.90
2009,09,22,06,07,9.90
2009,09,22,06,08,9.90
2009,09,22,06,09,9.90
2009,09,22,06,10,9.90
2009,09,22,06,11,9.90
2009,09,22,06,12,9.90
2009,09,22,06,13,9.90
2009,09,22,06,14,9.80
2009,09,22,06,15,9.70
2009,09,22,06,16,9.70
2009,09,22,06,17,9.70
2009,09,22,06,18,9.70
2009,09,22,06,19,9.70
2009,09,22,06,20,9.60
2009,09,22,06,21,9.60
2009,09,22,06,22,9.60
2009,09,22,06,23,9.50
2009,09,22,06,24,9.50
2009,09,22,06,25,9.50
2009,09,22,06,26,9.50
2009,09,22,06,27,9.50
2009,09,22,06,28,9.50
2009,09,22,06,29,9.50
2009,09,22,06,30,9.60
2009,09,22,06,31,9.60
2009,09,22,06,32,9.70
2009,09,22,06,33,9.70
2009,09,22,06,34,9.70
2009,09,22,06,35,9.70
2009,09,22,06,36,9.70
2009,09,22,06,37,9.80
2009,09,22,06,38,9.80
2009,09,22,06,39,9.80
2009,09,22,06,40,9.90
2009,09,22,06,41,9.90
2009,09,22,06,42,9.90
2009,09,22,06,43,9.90
2009,09,22,06,44,10.00
2009,09,22,06,45,10.10
2009,09,22,06,46,10.10
2009,09,22,06,47,10.10
2009,09,22,06,48,10.10
2009,09,22,06,49,10.10
2009,09,22,06,50,10.10
2009,09,22,06,51,10.10
2009,09,22,06,52,10.00
2009,09,22,06,53,9.90
2009,09,22,06,54,9.90
2009,09,22,06,55,9.90
2009,09,22,06,56,9.90
2009,09,22,06,57,9.90
2009,09,22,06,58,9.90
2009,09,22,06,59,9.90
2009,09,22,07,00,10.00
2009,09,22,07,01,10.10
2009,09,22,07,02,10.10
2009,09,22,07,03,10.10
2009,09,22,07,04,10.20
2009,09,22,07,05,10.20
2009,09,22,07,06,10.20
2009,09,22,07,07,10.20
2009,09,22,07,08,10.30
2009,09,22,07,09,10.20
2009,09,22,07,10,10.20
2009,09,22,07,11,10.20
2009,09,22,07,12,10.20
2009,09,22,07,13,10.20
2009,09,22,07,14,10.10
2009,09,22,07,15,10.10
2009,09,22,07,16,10.10
2009,09,22,07,17,10.10
2009,09,22,07,18,10.10
2009,09,22,07,19,10.10
2009,09,22,07,20,10.10
2009,09,22,07,21,10.10
2009,09,22,07,22,10.10
2009,09,22,07,23,10.10
2009,09,22,07,24,10.10
2009,09,22,07,25,10.10
2009,09,22,07,26,10.10
2009,09,22,07,27,10.10
2009,09,22,07,28,10.10
2009,09,22,07,29,10.10
2009,09,22,07,30,10.10
2009,09,22,07,31,10.10
2009,09,22,07,32,10.20
2009,09,22,07,33,10.20
2009,09,22,07,34,10.30
2009,09,22,07,35,10.30
2009,09,22,07,36,10.40
2009,09,22,07,37,10.40
2009,09,22,07,38,10.40
2009,09,22,07,39,10.40
2009,09,22,07,40,10.40
2009,09,22,07,41,10.40
2009,09,22,07,42,10.40
2009,09,22,07,43,10.40
2009,09,22,07,44,10.50
2009,09,22,07,45,10.60
2009,09,22,07,46,10.60
2009,09,22,07,47,10.60
2009,09,22,07,48,10.60
2009,09,22,07,49,10.60
2009,09,22,07,50,10.60
2009,09,22,07,51,10.70
2009,09,22,07,52,10.70
2009,09,22,07,53,10.70
2009,09,22,07,54,10.80
2009,09,22,07,55,10.80
2009,09,22,07,56,10.90
2009,09,22,07,57,10.90
2009,09,22,07,58,10.90
2009,09,22,07,59,11.00
2009,09,22,08,00,11.10
2009,09,22,08,01,11.10
2009,09,22,08,02,11.10
2009,09,22,08,03,11.20
2009,09,22,08,04,11.30
2009,09,22,08,05,11.30
2009,09,22,08,06,11.40
2009,09,22,08,07,11.40
2009,09,22,08,08,11.50
2009,09,22,08,09,11.60
2009,09,22,08,10,11.70
2009,09,22,08,11,11.80
2009,09,22,08,12,11.80
2009,09,22,08,13,11.90
2009,09,22,08,14,12.00
2009,09,22,08,15,12.00
2009,09,22,08,16,12.10
2009,09,22,08,17,12.10
2009,09,22,08,18,12.20
2009,09,22,08,19,12.20
2009,09,22,08,20,12.30
2009,09,22,08,21,12.30
2009,09,22,08,22,12.30
2009,09,22,08,23,12.30
2009,09,22,08,24,12.30
2009,09,22,08,25,12.30
2009,09,22,08,26,12.40
2009,09,22,08,27,12.40
2009,09,22,08,28,12.50
2009,09,22,08,29,12.50
2009,09,22,08,30,12.50
2009,09,22,08,31,12.50
2009,09,22,08,32,12.60
2009,09,22,08,33,12.60
2009,09,22,08,34,12.60
2009,09,22,08,35,12.70
2009,09,22,08,36,12.70
2009,09,22,08,37,12.80
2009,09,22,08,38,12.90
2009,09,22,08,39,13.00
2009,09,22,08,40,13.20
2009,09,22,08,41,13.30
2009,09,22,08,42,13.40
2009,09,22,08,43,13.50
2009,09,22,08,44,13.60
2009,09,22,08,45,13.70
2009,09,22,08,46,13.70
2009,09,22,08,47,13.80
2009,09,22,08,48,13.80
2009,09,22,08,49,13.80
2009,09,22,08,50,13.90
2009,09,22,08,51,13.90
2009,09,22,08,52,14.00
2009,09,22,08,53,14.00
2009,09,22,08,54,14.10
2009,09,22,08,55,14.20
2009,09,22,08,56,14.20
2009,09,22,08,57,14.30
2009,09,22,08,58,14.30
2009,09,22,08,59,14.40
2009,09,22,09,00,14.50
2009,09,22,09,01,14.50
2009,09,22,09,02,14.60
2009,09,22,09,03,14.70
2009,09,22,09,04,14.70
2009,09,22,09,05,14.80
2009,09,22,09,06,14.80
2009,09,22,09,07,14.90
2009,09,22,09,08,15.00
2009,09,22,09,09,15.10
2009,09,22,09,10,15.10
2009,09,22,09,11,15.20
2009,09,22,09,12,15.30
2009,09,22,09,13,15.40
2009,09,22,09,14,15.50
2009,09,22,09,15,15.60
2009,09,22,09,16,15.60
2009,09,22,09,17,15.70
2009,09,22,09,18,15.80
2009,09,22,09,19,15.80
2009,09,22,09,20,15.80
2009,09,22,09,21,15.90
2009,09,22,09,22,16.00
2009,09,22,09,23,16.10
2009,09,22,09,24,16.10
2009,09,22,09,25,16.20
2009,09,22,09,26,16.20
2009,09,22,09,27,16.30
2009,09,22,09,28,16.30
2009,09,22,09,29,16.40
2009,09,22,09,30,16.40
2009,09,22,09,31,16.40
2009,09,22,09,32,16.40
2009,09,22,09,33,16.60
2009,09,22,09,34,16.60
2009,09,22,09,35,16.60
2009,09,22,09,36,16.60
2009,09,22,09,37,16.70
2009,09,22,09,38,16.70
2009,09,22,09,39,16.70
2009,09,22,09,40,16.70
2009,09,22,09,41,16.70
2009,09,22,09,42,16.80
2009,09,22,09,43,16.80
2009,09,22,09,44,16.90
2009,09,22,09,45,17.00
2009,09,22,09,46,17.00
2009,09,22,09,47,17.20
2009,09,22,09,48,17.30
2009,09,22,09,49,17.30
2009,09,22,09,50,17.40
2009,09,22,09,51,17.40
2009,09,22,09,52,17.40
2009,09,22,09,53,17.40
2009,09,22,09,54,17.30
2009,09,22,09,55,17.30
2009,09,22,09,56,17.30
2009,09,22,09,57,17.30
2009,09,22,09,58,17.30
2009,09,22,09,59,17.30
2009,09,22,10,00,17.40
2009,09,22,10,01,17.40
2009,09,22,10,02,17.40
2009,09,22,10,03,17.40
2009,09,22,10,04,17.50
2009,09,22,10,05,17.50
2009,09,22,10,06,17.60
2009,09,22,10,07,17.60
2009,09,22,10,08,17.60
2009,09,22,10,09,17.70
2009,09,22,10,10,17.70
2009,09,22,10,11,17.80
2009,09,22,10,12,17.80
2009,09,22,10,13,17.80
2009,09,22,10,14,17.90
2009,09,22,10,15,17.90
2009,09,22,10,16,17.90
2009,09,22,10,17,17.90
2009,09,22,10,18,17.90
2009,09,22,10,19,17.90
2009,09,22,10,20,17.90
2009,09,22,10,21,18.00
2009,09,22,10,22,18.10
2009,09,22,10,23,18.10
2009,09,22,10,24,18.00
2009,09,22,10,25,17.90
2009,09,22,10,26,17.90
2009,09,22,10,27,17.90
2009,09,22,10,28,17.80
2009,09,22,10,29,17.70
2009,09,22,10,30,17.60
2009,09,22,10,31,17.50
2009,09,22,10,32,17.50
2009,09,22,10,33,17.50
2009,09,22,10,34,17.50
2009,09,22,10,35,17.50
2009,09,22,10,36,17.40
2009,09,22,10,37,17.40
2009,09,22,10,38,17.40
2009,09,22,10,39,17.40
2009,09,22,10,40,17.30
2009,09,22,10,41,17.30
2009,09,22,10,42,17.30
2009,09,22,10,43,17.30
2009,09,22,10,44,17.30
2009,09,22,10,45,17.30
2009,09,22,10,46,17.40
2009,09,22,10,47,17.40
2009,09,22,10,48,17.40
2009,09,22,10,49,17.40
2009,09,22,10,50,17.50
2009,09,22,10,51,17.50
2009,09,22,10,52,17.50
2009,09,22,10,53,17.50
2009,09,22,10,54,17.50
2009,09,22,10,55,17.50
2009,09,22,10,56,17.50
2009,09,22,10,57,17.50
2009,09,22,10,58,17.50
2009,09,22,10,59,17.50
2009,09,22,11,00,17.60
2009,09,22,11,01,17.60
2009,09,22,11,02,17.60
2009,09,22,11,03,17.70
2009,09,22,11,04,17.70
2009,09,22,11,05,17.80
2009,09,22,11,06,17.80
2009,09,22,11,07,17.80
2009,09,22,11,08,17.80
2009,09,22,11,09,17.80
2009,09,22,11,10,17.90
2009,09,22,11,11,18.00
2009,09,22,11,12,18.10
2009,09,22,11,13,18.10
2009,09,22,11,14,18.10
2009,09,22,11,15,18.20
2009,09,22,11,16,18.20
2009,09,22,11,17,18.20
2009,09,22,11,18,18.30
2009,09,22,11,19,18.50
2009,09,22,11,20,18.50
2009,09,22,11,21,18.60
2009,09,22,11,22,18.60
2009,09,22,11,23,18.70
2009,09,22,11,24,18.70
2009,09,22,11,25,18.90
2009,09,22,11,26,18.90
2009,09,22,11,27,19.00
2009,09,22,11,28,19.10
2009,09,22,11,29,19.20
2009,09,22,11,30,19.30
2009,09,22,11,31,19.40
2009,09,22,11,32,19.50
2009,09,22,11,33,19.50
2009,09,22,11,34,19.50
2009,09,22,11,35,19.50
2009,09,22,11,36,19.50
2009,09,22,11,37,19.50
2009,09,22,11,38,19.60
2009,09,22,11,39,19.70
2009,09,22,11,40,19.80
2009,09,22,11,41,19.90
2009,09,22,11,42,19.90
2009,09,22,11,43,19.90
2009,09,22,11,44,19.90
2009,09,22,11,45,20.00
2009,09,22,11,46,20.10
2009,09,22,11,47,20.20
2009,09,22,11,48,20.10
2009,09,22,11,49,20.00
2009,09,22,11,50,19.90
2009,09,22,11,51,19.90
2009,09,22,11,52,20.00
2009,09,22,11,53,20.10
2009,09,22,11,54,20.10
2009,09,22,11,55,20.00
2009,09,22,11,56,19.90
2009,09,22,11,57,19.90
2009,09,22,11,58,19.80
2009,09,22,11,59,19.60
2009,09,22,12,00,19.40
2009,09,22,12,01,19.10
2009,09,22,12,02,19.00
2009,09,22,12,03,18.90
2009,09,22,12,04,18.80
2009,09,22,12,05,18.70
2009,09,22,12,06,18.70
2009,09,22,12,07,18.80
2009,09,22,12,08,18.80
2009,09,22,12,09,18.80
2009,09,22,12,10,18.80
2009,09,22,12,11,18.80
2009,09,22,12,12,18.80
2009,09,22,12,13,18.90
2009,09,22,12,14,19.10
2009,09,22,12,15,19.20
2009,09,22,12,16,19.20
2009,09,22,12,17,19.20
2009,09,22,12,18,19.20
2009,09,22,12,19,19.20
2009,09,22,12,20,19.30
2009,09,22,12,21,19.20
2009,09,22,12,22,19.30
2009,09,22,12,23,19.50
2009,09,22,12,24,19.60
2009,09,22,12,25,19.70
2009,09,22,12,26,19.80
2009,09,22,12,27,19.90
2009,09,22,12,28,20.00
2009,09,22,12,29,20.10
2009,09,22,12,30,20.20
2009,09,22,12,31,20.20
2009,09,22,12,32,20.20
2009,09,22,12,33,20.30
2009,09,22,12,34,20.20
2009,09,22,12,35,20.30
2009,09,22,12,36,20.30
2009,09,22,12,37,20.30
2009,09,22,12,38,20.40
2009,09,22,12,39,20.50
2009,09,22,12,40,20.50
2009,09,22,12,41,20.60
2009,09,22,12,42,20.70
2009,09,22,12,43,20.70
2009,09,22,12,44,20.70
2009,09,22,12,45,20.60
2009,09,22,12,46,20.60
2009,09,22,12,47,20.60
2009,09,22,12,48,20.60
2009,09,22,12,49,20.60
2009,09,22,12,50,20.50
2009,09,22,12,51,20.50
2009,09,22,12,52,20.50
2009,09,22,12,53,20.50
2009,09,22,12,54,20.50
2009,09,22,12,55,20.50
2009,09,22,12,56,20.50
2009,09,22,12,57,20.60
2009,09,22,12,58,20.70
2009,09,22,12,59,20.70
2009,09,22,13,00,20.40
2009,09,22,13,01,20.20
2009,09,22,13,02,20.10
2009,09,22,13,03,20.10
2009,09,22,13,04,20.10
2009,09,22,13,05,20.00
2009,09,22,13,06,19.90
2009,09,22,13,07,19.90
2009,09,22,13,08,19.80
2009,09,22,13,09,19.70
2009,09,22,13,10,19.60
2009,09,22,13,11,19.50
2009,09,22,13,12,19.50
2009,09,22,13,13,19.40
2009,09,22,13,14,19.40
2009,09,22,13,15,19.40
2009,09,22,13,16,19.50
2009,09,22,13,17,19.50
2009,09,22,13,18,19.50
2009,09,22,13,19,19.40
2009,09,22,13,20,19.50
2009,09,22,13,21,19.50
2009,09,22,13,22,19.50
2009,09,22,13,23,19.50
2009,09,22,13,24,19.50
2009,09,22,13,25,19.50
2009,09,22,13,26,19.50
2009,09,22,13,27,19.60
2009,09,22,13,28,19.60
2009,09,22,13,29,19.60
2009,09,22,13,30,19.60
2009,09,22,13,31,19.70
2009,09,22,13,32,19.80
2009,09,22,13,33,19.90
2009,09,22,13,34,20.00
2009,09,22,13,35,20.10
2009,09,22,13,36,19.90
2009,09,22,13,37,19.90
2009,09,22,13,38,19.90
2009,09,22,13,39,20.00
2009,09,22,13,40,20.10
2009,09,22,13,41,20.20
2009,09,22,13,42,20.20
2009,09,22,13,43,20.40
2009,09,22,13,44,20.50
2009,09,22,13,45,20.60
2009,09,22,13,46,20.50
2009,09,22,13,47,20.50
2009,09,22,13,48,20.50
2009,09,22,13,49,20.40
2009,09,22,13,50,20.20
2009,09,22,13,51,20.20
2009,09,22,13,52,20.20
2009,09,22,13,53,20.40
2009,09,22,13,54,20.50
2009,09,22,13,55,20.70
2009,09,22,13,56,20.70
2009,09,22,13,57,20.70
2009,09,22,13,58,20.70
2009,09,22,13,59,20.60
2009,09,22,14,00,20.50
2009,09,22,14,01,20.30
2009,09,22,14,02,20.20
2009,09,22,14,03,20.20
2009,09,22,14,04,20.20
2009,09,22,14,05,20.20
2009,09,22,14,06,20.20
2009,09,22,14,07,20.30
2009,09,22,14,08,20.50
2009,09,22,14,09,20.60
2009,09,22,14,10,20.70
2009,09,22,14,11,20.80
2009,09,22,14,12,20.90
2009,09,22,14,13,20.90
2009,09,22,14,14,20.90
2009,09,22,14,15,20.80
2009,09,22,14,16,20.70
2009,09,22,14,17,20.50
2009,09,22,14,18,20.40
2009,09,22,14,19,20.30
2009,09,22,14,20,20.30
2009,09,22,14,21,20.20
2009,09,22,14,22,20.30
2009,09,22,14,23,20.40
2009,09,22,14,24,20.40
2009,09,22,14,25,20.40
2009,09,22,14,26,20.30
2009,09,22,14,27,20.20
2009,09,22,14,28,20.30
2009,09,22,14,29,20.40
2009,09,22,14,30,20.40
2009,09,22,14,31,20.50
2009,09,22,14,32,20.50
2009,09,22,14,33,20.40
2009,09,22,14,34,20.20
2009,09,22,14,35,20.20
2009,09,22,14,36,20.20
2009,09,22,14,37,20.30
2009,09,22,14,38,20.30
2009,09,22,14,39,20.30
2009,09,22,14,40,20.30
2009,09,22,14,41,20.30
2009,09,22,14,42,20.20
2009,09,22,14,43,20.30
2009,09,22,14,44,20.40
2009,09,22,14,45,20.40
2009,09,22,14,46,20.50
2009,09,22,14,47,20.50
2009,09,22,14,48,20.60
2009,09,22,14,49,20.60
2009,09,22,14,50,20.70
2009,09,22,14,51,20.80
2009,09,22,14,52,20.80
2009,09,22,14,53,20.90
2009,09,22,14,54,20.90
2009,09,22,14,55,20.80
2009,09,22,14,56,20.80
2009,09,22,14,57,20.80
2009,09,22,14,58,20.70
2009,09,22,14,59,20.70
2009,09,22,15,00,20.80
2009,09,22,15,01,20.90
2009,09,22,15,02,20.90
2009,09,22,15,03,20.90
2009,09,22,15,04,20.90
2009,09,22,15,05,20.90
2009,09,22,15,06,20.90
2009,09,22,15,07,20.80
2009,09,22,15,08,20.70
2009,09,22,15,09,20.60
2009,09,22,15,10,20.60
2009,09,22,15,11,20.60
2009,09,22,15,12,20.60
2009,09,22,15,13,20.70
2009,09,22,15,14,20.80
2009,09,22,15,15,21.00
2009,09,22,15,16,21.10
2009,09,22,15,17,21.20
2009,09,22,15,18,21.30
2009,09,22,15,19,21.30
2009,09,22,15,20,21.40
2009,09,22,15,21,21.40
2009,09,22,15,22,21.40
2009,09,22,15,23,21.30
2009,09,22,15,24,21.30
2009,09,22,15,25,21.30
2009,09,22,15,26,21.30
2009,09,22,15,27,21.30
2009,09,22,15,28,21.30
2009,09,22,15,29,21.30
2009,09,22,15,30,21.30
2009,09,22,15,31,21.40
2009,09,22,15,32,21.40
2009,09,22,15,33,21.50
2009,09,22,15,34,21.60
2009,09,22,15,35,21.60
2009,09,22,15,36,21.60
2009,09,22,15,37,21.60
2009,09,22,15,38,21.60
2009,09,22,15,39,21.70
2009,09,22,15,40,21.70
2009,09,22,15,41,21.70
2009,09,22,15,42,21.70
2009,09,22,15,43,21.70
2009,09,22,15,44,21.70
2009,09,22,15,45,21.70
2009,09,22,15,46,21.70
2009,09,22,15,47,21.70
2009,09,22,15,48,21.80
2009,09,22,15,49,21.70
2009,09,22,15,50,21.70
2009,09,22,15,51,21.60
2009,09,22,15,52,21.50
2009,09,22,15,53,21.40
2009,09,22,15,54,21.30
2009,09,22,15,55,21.30
2009,09,22,15,56,21.30
2009,09,22,15,57,21.30
2009,09,22,15,58,21.30
2009,09,22,15,59,21.20
2009,09,22,16,00,21.10
2009,09,22,16,01,20.90
2009,09,22,16,02,20.80
2009,09,22,16,03,20.60
2009,09,22,16,04,20.50
2009,09,22,16,05,20.30
2009,09,22,16,06,20.20
2009,09,22,16,07,20.10
2009,09,22,16,08,20.10
2009,09,22,16,09,20.10
2009,09,22,16,10,20.10
2009,09,22,16,11,20.10
2009,09,22,16,12,20.10
2009,09,22,16,13,20.20
2009,09,22,16,14,20.20
2009,09,22,16,15,20.30
2009,09,22,16,16,20.40
2009,09,22,16,17,20.50
2009,09,22,16,18,20.50
2009,09,22,16,19,20.60
2009,09,22,16,20,20.60
2009,09,22,16,21,20.70
2009,09,22,16,22,20.80
2009,09,22,16,23,21.00
2009,09,22,16,24,21.10
2009,09,22,16,25,21.20
2009,09,22,16,26,21.30
2009,09,22,16,27,21.20
2009,09,22,16,28,21.10
2009,09,22,16,29,21.10
2009,09,22,16,30,21.10
2009,09,22,16,31,21.00
2009,09,22,16,32,21.10
2009,09,22,16,33,21.10
2009,09,22,16,34,21.00
2009,09,22,16,35,21.00
2009,09,22,16,36,21.00
2009,09,22,16,37,21.00
2009,09,22,16,38,21.00
2009,09,22,16,39,21.00
2009,09,22,16,40,21.00
2009,09,22,16,41,21.00
2009,09,22,16,42,21.00
2009,09,22,16,43,21.10
2009,09,22,16,44,21.10
2009,09,22,16,45,21.10
2009,09,22,16,46,21.20
2009,09,22,16,47,21.20
2009,09,22,16,48,21.20
2009,09,22,16,49,21.30
2009,09,22,16,50,21.30
2009,09,22,16,51,21.30
2009,09,22,16,52,21.40
2009,09,22,16,53,21.50
2009,09,22,16,54,21.60
2009,09,22,16,55,21.60
2009,09,22,16,56,21.60
2009,09,22,16,57,21.60
2009,09,22,16,58,21.70
2009,09,22,16,59,21.70
2009,09,22,17,00,21.70
2009,09,22,17,01,21.80
2009,09,22,17,02,21.70
2009,09,22,17,03,21.70
2009,09,22,17,04,21.80
2009,09,22,17,05,21.90
2009,09,22,17,06,22.00
2009,09,22,17,07,22.10
2009,09,22,17,08,22.20
2009,09,22,17,09,22.30
2009,09,22,17,10,22.40
2009,09,22,17,11,22.40
2009,09,22,17,12,22.40
2009,09,22,17,13,22.40
2009,09,22,17,14,22.40
2009,09,22,17,15,22.30
2009,09,22,17,16,22.30
2009,09,22,17,17,22.20
2009,09,22,17,18,22.20
2009,09,22,17,19,22.10
2009,09,22,17,20,22.00
2009,09,22,17,21,22.00
2009,09,22,17,22,21.90